[[{"header":{"parameterUnit":"m.s-1","parameterCategory":1,"la1":30.2991,"la2":30.254,"lo1":-89.0895,"lo2":-89.0444,"dy":0.0017,"dx":0.0017,"nx":28,"ny":28,"refTime":"2025-12-01T03:00:00:Z","depth":0,"parameterNumber":2,"parameterNumberName":"U-component_of_WINDS"},"data":[0,0,0,0,0,0,0,0,0,0,0,0,0,0,0,0,0,0,0,0,0,0,0,0,0,0,0,0,0,0,0,0,0,0,0,0,0,0,0,0,0,0,0,0,0,0,0,0,0,0,0,0,0,0,0,0,0,0,-3.3778,-3.3779,0,-3.383,-3.3831,-3.3832,-3.3745,-3.3742,-3.3739,-3.3736,-3.3793,-3.3797,-3.3801,0,0,0,0,0,0,0,0,0,0,0,0,0,-3.3606,-3.361,-3.3778,-3.3779,-3.3779,-3.383,-3.3831,-3.3832,-3.3745,-3.3742,-3.3738,-3.3735,-3.3791,-3.3796,-3.3801,0,0,0,0,0,0,0,0,0,0,0,0,0,-3.3672,-3.3611,-3.3778,-3.3742,-3.374,-3.383,-3.3831,-3.3832,-3.3746,-3.3742,-3.3737,-3.3733,-3.379,-3.3796,-3.3802,-3.3931,0,0,-3.3822,-3.3824,0,0,0,0,0,0,0,0,-3.3669,-3.3679,-3.3747,-3.3745,-3.3742,-3.3776,-3.3791,-3.3865,-3.3747,-3.3744,-3.3736,-3.3731,-3.3791,-3.3797,-3.3817,-3.3933,-3.3936,-3.3822,-3.3826,-3.3829,-3.3831,0,0,0,0,0,0,0,-3.3664,-3.3676,-3.3799,-3.3748,-3.3745,-3.3725,-3.3729,-3.3805,-3.3792,-3.3744,-3.3738,-3.3745,-3.3789,-3.3811,-3.3817,-3.3937,-3.3822,-3.3828,-3.3832,-3.3834,-3.4163,-3.4168,0,0,0,0,0,0,-3.3664,-3.3673,-3.3797,-3.38,-3.3694,-3.3732,-3.3736,-3.377,-3.3791,-3.379,-3.3749,-3.3741,-3.3802,-3.381,-3.3819,-3.3973,-3.3829,-3.3835,-3.3838,-3.4158,-3.4164,-3.417,0,0,0,0,0,0,-3.366,-3.3676,-3.3795,-3.3735,-3.3749,-3.3739,-3.3778,-3.3773,-3.3795,-3.3794,-3.3792,-3.3773,-3.3799,-3.381,-3.3904,-3.3973,-3.3838,-3.3843,-3.4153,-3.416,-3.4167,-3.428,0,0,0,0,0,0,-3.3656,-3.3675,-3.3723,-3.3737,-3.3752,-3.3879,-3.3782,-3.3778,-3.3806,-3.3796,-3.3817,-3.3816,-3.3796,-3.3895,-3.391,-3.398,-3.3848,-3.4146,-3.4156,-3.4165,-3.427,-3.429,-3.4308,0,0,0,0,0,-3.365,-3.3753,-3.3726,-3.3741,-3.3812,-3.3883,-3.3892,-3.3866,-3.3812,-3.3861,-3.3861,-3.3815,-3.3963,-3.3905,-3.3922,-3.3994,-3.4142,-3.4153,-3.4164,-3.4262,-3.4286,-3.4307,0,0,0,0,0,0,-3.3748,-3.3754,-3.3724,-3.3834,-3.3859,-3.3868,-3.3929,-3.3893,-3.3933,-3.3923,-3.389,-3.3895,-3.3996,-3.4004,-3.394,-3.4121,-3.4043,-3.4058,-3.4112,-3.4136,-3.4154,-3.4151,-3.3854,0,0,0,0,0,-3.3783,-3.3839,-3.3841,-3.3938,-3.3952,-3.3939,-3.3968,-3.3946,-3.397,-3.3981,-3.3987,-3.4013,-3.4065,-3.41,-3.4148,-3.427,-3.4275,-3.4328,-3.4347,-3.4362,-3.4377,-3.4444,-3.4468,-3.4206,-3.4206,-3.4205,0,0,-3.3855,-3.3865,-3.3902,-3.3958,-3.3974,-3.4035,-3.3948,-3.4014,-3.4059,-3.3991,-3.408,-3.4086,-3.4113,-3.4222,-3.427,-3.4232,-3.445,-3.4377,-3.4389,-3.4395,-3.4458,-3.4482,-3.4505,-3.4213,-3.4212,-3.4211,0,0,-3.4017,-3.403,-3.4113,-3.4131,-3.4156,-3.4147,-3.4167,-3.4182,-3.4183,-3.4271,-3.4222,-3.4275,-3.4365,-3.4387,-3.441,-3.4581,-3.4542,-3.4597,-3.4697,-3.4762,-3.4783,-3.4801,-3.4865,-3.4888,-3.4611,-3.4611,-3.4611,0,-3.4104,-3.4192,-3.416,-3.4231,-3.4258,-3.4198,-3.4283,-3.4302,-3.4343,-3.4363,-3.4319,-3.4432,-3.4445,-3.4559,-3.4601,-3.4621,-3.4645,-3.4596,-3.4782,-3.48,-3.4817,-3.4877,-3.4901,-3.4618,-3.4617,-3.4616,-3.4616,0,-3.4298,-3.436,-3.4424,-3.4464,-3.4498,-3.4576,-3.4557,-3.4595,-3.4571,-3.4566,-3.4658,-3.4673,-3.4723,-3.4748,-3.4725,-3.486,-3.4835,-3.4787,-3.471,-3.4849,-3.4905,-3.4928,-3.4628,-3.4625,-3.4623,-3.4622,0,0,-3.4526,-3.4547,-3.4572,-3.459,-3.4613,-3.4661,-3.4736,-3.4785,-3.4819,-3.4849,-3.4913,-3.4991,-3.4947,-3.4973,-3.4951,-3.5009,-3.5146,-3.4954,-3.4954,-3.4991,-3.5299,-3.5336,-3.5363,-3.5119,-3.5123,-3.5127,-3.5297,0,-3.4689,-3.4818,-3.4793,-3.492,-3.4977,-3.4921,-3.4987,-3.501,-3.5007,-3.5057,-3.5054,-3.5111,-3.5047,-3.5063,-3.5117,-3.5118,-3.5208,-3.5105,-3.518,-3.5184,-3.5178,-3.5392,-3.5432,-3.5592,-3.5318,-3.5322,-3.5325,0,-3.4897,-3.4934,-3.5067,-3.5083,-3.5106,-3.5166,-3.5209,-3.5256,-3.5281,-3.5276,-3.5305,-3.5273,-3.5349,-3.5269,-3.5375,-3.5306,-3.5335,-3.534,-3.5345,-3.5353,-3.5264,-3.5408,-3.5642,-3.5667,-3.5359,-3.5356,-3.5353,0,-3.5053,-3.5136,-3.5226,-3.5243,-3.5263,-3.5307,-3.5317,-3.5337,-3.5369,-3.5407,-3.5427,-3.5474,-3.55,-3.5537,-3.5519,-3.5462,-3.563,-3.5547,-3.5629,-3.563,-3.5669,-3.5667,-3.5913,-3.5684,-3.5683,-3.5683,-3.5683,0,-3.5239,-3.5323,-3.5297,-3.5353,-3.5446,-3.5416,-3.5509,-3.5513,-3.5531,-3.5588,-3.5542,-3.5597,-3.5568,-3.5621,-3.5607,-3.5698,-3.571,-3.5709,-3.5705,-3.5715,-3.5715,-3.5735,-3.5724,-3.5689,-3.5688,-3.5687,-3.5686,0,-3.5429,-3.5414,-3.551,-3.5521,-3.5526,-3.5594,-3.5604,-3.5657,-3.5651,-3.5724,-3.5739,-3.5731,-3.5791,-3.5775,-3.5841,-3.5831,-3.5947,-3.5928,-3.5939,-3.5935,-3.6019,-3.6012,-3.6288,-3.6324,-3.607,-3.6072,-3.6074,0,-3.555,-3.5614,-3.5631,-3.5666,-3.568,-3.5736,-3.5767,-3.574,-3.5775,-3.5809,-3.5859,-3.5914,-3.5957,-3.6056,-3.6057,-3.6107,-3.609,-3.6183,-3.6097,-3.6106,-3.6094,-3.6092,-3.6099,-3.6201,-3.6204,-3.6206,-3.6208,0,-3.5768,-3.5757,-3.5804,-3.585,-3.5889,-3.5923,-3.5953,-3.5984,-3.5959,-3.6002,-3.6062,-3.6096,-3.6162,-3.6219,-3.6265,-3.6277,-3.624,-3.6235,-3.6257,-3.6269,-3.6274,-3.6275,-3.5988,-3.6229,-3.6227,-3.6225,-3.6224,-3.6223,-3.5929,-3.5983,-3.6004,-3.6059,-3.6078,-3.6108,-3.6159,-3.6159,-3.6209,-3.6261,-3.6241,-3.6311,-3.6335,-3.6394,-3.6411,-3.6467,-3.6431,-3.6463,-3.6471,-3.648,-3.6492,-3.6263,-3.6475,-3.6474,-3.6473,-3.6473,-3.6472,0,-3.6146,-3.6156,-3.6206,-3.625,-3.6294,-3.6252,-3.6284,-3.6324,-3.6385,-3.641,-3.6454,-3.6524,-3.6579,-3.6584,-3.6636,-3.6679,-3.6664,-3.6694,-3.6692,-3.6696,-3.6519,-3.6496,-3.6706,-3.6706,-3.6706,-3.6706,-3.6706,-3.6706,-3.6264,-3.6354,-3.6347,-3.6447,-3.6457,-3.6525,-3.6547,-3.6574,-3.6594,-3.6675,-3.672,-3.6722,-3.674,-3.6793,-3.6842,-3.6842,-3.6864,-3.6902,-3.6896,-3.6731,-3.6708,-3.6686,-3.6664,-3.6907,-3.6907,-3.7069,-3.707,-3.7072]},{"header":{"parameterUnit":"m.s-1","parameterCategory":1,"la1":30.2991,"la2":30.254,"lo1":-89.0895,"lo2":-89.0444,"dy":0.0017,"dx":0.0017,"nx":28,"ny":28,"refTime":"2025-12-01T03:00:00:Z","depth":0,"parameterNumber":3,"parameterNumberName":"V-component_of_WINDS"},"data":[0,0,0,0,0,0,0,0,0,0,0,0,0,0,0,0,0,0,0,0,0,0,0,0,0,0,0,0,0,0,0,0,0,0,0,0,0,0,0,0,0,0,0,0,0,0,0,0,0,0,0,0,0,0,0,0,0,0,-3.5752,-3.5752,0,-3.5753,-3.5753,-3.5753,-3.5725,-3.5724,-3.5724,-3.5723,-3.5725,-3.5725,-3.5726,0,0,0,0,0,0,0,0,0,0,0,0,0,-3.5723,-3.5724,-3.5752,-3.5752,-3.5752,-3.5753,-3.5753,-3.5753,-3.5725,-3.5724,-3.5723,-3.5723,-3.5724,-3.5725,-3.5726,0,0,0,0,0,0,0,0,0,0,0,0,0,-3.5732,-3.5724,-3.5752,-3.5738,-3.5737,-3.5753,-3.5753,-3.5753,-3.5725,-3.5724,-3.5723,-3.5722,-3.5724,-3.5725,-3.5726,-3.5756,0,0,-3.573,-3.573,0,0,0,0,0,0,0,0,-3.5731,-3.5733,-3.574,-3.5739,-3.5738,-3.5738,-3.5744,-3.5755,-3.5726,-3.573,-3.5723,-3.5721,-3.573,-3.5731,-3.5733,-3.5757,-3.5757,-3.573,-3.5731,-3.5731,-3.5731,0,0,0,0,0,0,0,-3.5731,-3.5732,-3.5752,-3.574,-3.5739,-3.5731,-3.5731,-3.5746,-3.5736,-3.5729,-3.5727,-3.5728,-3.5729,-3.5732,-3.5733,-3.5757,-3.573,-3.5731,-3.5732,-3.5732,-3.5804,-3.5805,0,0,0,0,0,0,-3.5732,-3.5732,-3.5752,-3.5752,-3.5731,-3.5733,-3.5733,-3.5739,-3.5736,-3.5735,-3.5729,-3.5726,-3.5731,-3.5732,-3.5733,-3.5768,-3.5731,-3.5732,-3.5733,-3.5802,-3.5804,-3.5805,0,0,0,0,0,0,-3.5731,-3.5734,-3.5752,-3.5742,-3.5743,-3.5735,-3.5742,-3.574,-3.5743,-3.5736,-3.5734,-3.5734,-3.573,-3.5732,-3.5751,-3.5767,-3.5733,-3.5734,-3.5801,-3.5803,-3.5805,-3.5837,0,0,0,0,0,0,-3.5731,-3.5734,-3.5746,-3.5742,-3.5744,-3.577,-3.5743,-3.574,-3.5745,-3.5742,-3.574,-3.5739,-3.5729,-3.5749,-3.5752,-3.5768,-3.5735,-3.5799,-3.5802,-3.5804,-3.5835,-3.584,-3.5845,0,0,0,0,0,-3.573,-3.5755,-3.5746,-3.5749,-3.5758,-3.5771,-3.5772,-3.5761,-3.5746,-3.5758,-3.5753,-3.5739,-3.5765,-3.5751,-3.5754,-3.5771,-3.5798,-3.5801,-3.5804,-3.5832,-3.5839,-3.5844,0,0,0,0,0,0,-3.5761,-3.5754,-3.5745,-3.5769,-3.5771,-3.5766,-3.578,-3.5768,-3.5774,-3.5771,-3.5757,-3.5757,-3.5778,-3.5776,-3.5761,-3.58,-3.5779,-3.5783,-3.58,-3.5806,-3.5811,-3.5811,-3.5736,0,0,0,0,0,-3.5771,-3.5781,-3.5775,-3.5798,-3.5799,-3.5789,-3.5795,-3.5786,-3.5787,-3.5787,-3.5784,-3.5786,-3.5794,-3.58,-3.5808,-3.5834,-3.5833,-3.5847,-3.5852,-3.5856,-3.5859,-3.5873,-3.5879,-3.5814,-3.5814,-3.5814,0,0,-3.5791,-3.5788,-3.5796,-3.5804,-3.5804,-3.5815,-3.579,-3.5803,-3.5812,-3.5789,-3.5807,-3.5805,-3.5805,-3.5828,-3.5838,-3.5828,-3.5877,-3.586,-3.5863,-3.5864,-3.5876,-3.5882,-3.5888,-3.5816,-3.5816,-3.5815,0,0,-3.5833,-3.5833,-3.5851,-3.5852,-3.5852,-3.5845,-3.585,-3.5847,-3.5844,-3.5862,-3.5845,-3.5854,-3.587,-3.5871,-3.5873,-3.5915,-3.5902,-3.5918,-3.5944,-3.5957,-3.5962,-3.5966,-3.5981,-3.5986,-3.5921,-3.5921,-3.5921,0,-3.5858,-3.5875,-3.5862,-3.5876,-3.588,-3.586,-3.5878,-3.5879,-3.5882,-3.5885,-3.5873,-3.5891,-3.589,-3.5912,-3.5923,-3.5926,-3.593,-3.5918,-3.5962,-3.5967,-3.597,-3.5984,-3.599,-3.5923,-3.5923,-3.5923,-3.5922,0,-3.5905,-3.5917,-3.5931,-3.5934,-3.5939,-3.5956,-3.5945,-3.5952,-3.5942,-3.5937,-3.5955,-3.5953,-3.5959,-3.5964,-3.5955,-3.5985,-3.5978,-3.5965,-3.5944,-3.5979,-3.5991,-3.5996,-3.5926,-3.5925,-3.5924,-3.5924,0,0,-3.5968,-3.5963,-3.5968,-3.5969,-3.5968,-3.5976,-3.5991,-3.5997,-3.6003,-3.6005,-3.6017,-3.603,-3.6017,-3.602,-3.6011,-3.6023,-3.6055,-3.6007,-3.6007,-3.6016,-3.6088,-3.6098,-3.6104,-3.6047,-3.6048,-3.6048,-3.6087,0,-3.6009,-3.6034,-3.6022,-3.6048,-3.6059,-3.6039,-3.6052,-3.6053,-3.6048,-3.6056,-3.605,-3.606,-3.6042,-3.6044,-3.6054,-3.6049,-3.6069,-3.6046,-3.6057,-3.6058,-3.6057,-3.611,-3.6121,-3.6158,-3.6092,-3.6093,-3.6094,0,-3.606,-3.6064,-3.6091,-3.6087,-3.6091,-3.6102,-3.6107,-3.6114,-3.6114,-3.611,-3.6113,-3.6101,-3.6115,-3.6094,-3.6113,-3.6097,-3.6101,-3.6099,-3.61,-3.6101,-3.6078,-3.6112,-3.617,-3.6175,-3.6101,-3.6101,-3.61,0,-3.6102,-3.6114,-3.6132,-3.6133,-3.6129,-3.6137,-3.6136,-3.6135,-3.6139,-3.6143,-3.6145,-3.615,-3.6153,-3.6158,-3.6147,-3.6133,-3.6168,-3.6146,-3.6164,-3.6164,-3.6172,-3.6172,-3.6231,-3.6175,-3.6175,-3.6175,-3.6175,0,-3.6149,-3.6166,-3.6151,-3.6161,-3.618,-3.6166,-3.6185,-3.6182,-3.618,-3.619,-3.6174,-3.6183,-3.6169,-3.6177,-3.6169,-3.6186,-3.6187,-3.6184,-3.6182,-3.6185,-3.6186,-3.6187,-3.6184,-3.6176,-3.6176,-3.6176,-3.6176,0,-3.6199,-3.619,-3.6207,-3.6201,-3.62,-3.6214,-3.6209,-3.6219,-3.6213,-3.6225,-3.6227,-3.6218,-3.6226,-3.6216,-3.6224,-3.6218,-3.6241,-3.6235,-3.6241,-3.6239,-3.6257,-3.6255,-3.6319,-3.6327,-3.6267,-3.6267,-3.6268,0,-3.6229,-3.6242,-3.6237,-3.6242,-3.6242,-3.625,-3.6254,-3.6241,-3.6246,-3.6246,-3.6256,-3.6263,-3.6267,-3.6282,-3.6275,-3.6281,-3.6275,-3.6297,-3.6276,-3.6279,-3.6275,-3.6274,-3.6275,-3.6301,-3.6302,-3.6303,-3.6303,0,-3.6284,-3.6278,-3.6284,-3.6289,-3.6294,-3.6296,-3.6298,-3.6303,-3.629,-3.6296,-3.6304,-3.6307,-3.6315,-3.6322,-3.6326,-3.6324,-3.6311,-3.631,-3.6314,-3.6318,-3.632,-3.6319,-3.6252,-3.6308,-3.6308,-3.6307,-3.6307,-3.6307,-3.6325,-3.6335,-3.6333,-3.634,-3.6339,-3.6341,-3.635,-3.6344,-3.6351,-3.6355,-3.6347,-3.6358,-3.6356,-3.636,-3.636,-3.6368,-3.6358,-3.6365,-3.6366,-3.6368,-3.637,-3.632,-3.6368,-3.6368,-3.6368,-3.6368,-3.6368,0,-3.6378,-3.6376,-3.6382,-3.6384,-3.639,-3.6377,-3.6378,-3.6383,-3.6392,-3.6392,-3.6397,-3.6406,-3.6412,-3.6406,-3.6412,-3.6419,-3.6413,-3.6421,-3.642,-3.642,-3.6379,-3.6374,-3.6425,-3.6425,-3.6425,-3.6425,-3.6425,-3.6425,-3.6406,-3.6422,-3.6416,-3.6432,-3.6429,-3.6438,-3.644,-3.6441,-3.6441,-3.6452,-3.6457,-3.6453,-3.645,-3.6455,-3.646,-3.6458,-3.6461,-3.647,-3.6466,-3.6428,-3.6423,-3.6417,-3.6413,-3.6471,-3.6471,-3.6506,-3.6507,-3.6507]}]]